Regional Weather Roundup
Issued by NWS

Home | Current Version | Previous Version | Graphics & Text | Print | Product List | Glossary On
Versions: 1 2 3 4 5 6 7 8 9 10 11 12 13 14 15 16 17 18 19 20 21 22 23 24 25 26 27 28 29 30 31 32 33 34 35 36 37 38 39 40 41 42 43 44 45 46 47 48 49 50
000
ASUS43 KOAX 230002
RWRNE

WEATHER ROUNDUP FOR NEBRASKA
NATIONAL WEATHER SERVICE OMAHA NE
600 PM CST MON DEC 22 2014

NOTES: SATELLITE DATA IS BEING USED TO AUGMENT CLOUD COVER ABOVE
       12000 FEET.
       "FAIR" INDICATES FEW OR NO CLOUDS BELOW 12,000 FEET WITH NO
       SIGNIFICANT WEATHER AND/OR OBSTRUCTIONS TO VISIBILITY.

  * THESE STATIONS DO NOT REPORT WEATHER SUCH AS RAIN...SNOW OR FOG.

NEZ001>004-019>022-054>056-230100-
NEBRASKA PANHANDLE

CITY           SKY/WX    TMP DP  RH WIND       PRES   REMARKS
SCOTTSBLUFF    PTCLDY    33  24  69 NW20      29.69R WCI  21
6HR MIN TEMP:  32; 6HR MAX TEMP:  41; 6HR PCP: TRACE;

ALLIANCE       MOCLDY    34  22  61 NW23G31   29.61R WCI  22
6HR MIN TEMP:  34; 6HR MAX TEMP:  40;

CHADRON        CLOUDY    38  23  55 NW22G31   29.64R WCI  27
6HR MIN TEMP:  38; 6HR MAX TEMP:  43;

SIDNEY         PTCLDY    31  22  69 NW20      29.65S WCI  19
6HR MIN TEMP:  30; 6HR MAX TEMP:  40; 6HR PCP: TRACE;

$$

NEZ057>060-069>072-079>082-230100-
SOUTHWEST NEBRASKA

CITY           SKY/WX    TMP DP  RH WIND       PRES   REMARKS
NORTH PLATTE   MOCLDY    39  25  57 NW9       29.54S WCI  33
6HR MIN TEMP:  39; 6HR MAX TEMP:  48;

IMPERIAL       PTCLDY    36  23  59 W16       29.61S WCI  26
6HR MIN TEMP:  36; 6HR MAX TEMP:  45;

MCCOOK         CLEAR     41  24  51 W14       29.58R
6HR MIN TEMP:  41; 6HR MAX TEMP:  51;

$$

NEZ005>010-023>029-035>040-094-230100-
NORTH CENTRAL NEBRASKA

CITY           SKY/WX    TMP DP  RH WIND       PRES   REMARKS
VALENTINE      LGT SNOW  32  29  88 NW23G35   29.53R VSB 1   WCI  19
6HR MIN TEMP:  32; 6HR MAX TEMP:  40; 6HR PCP:  0.05;

BROKEN BOW     LGT RAIN  37  32  82 NW24G32   29.52R WCI  26
6HR MIN TEMP:  37; 6HR MAX TEMP:  46; 6HR PCP: TRACE;

$$

NEZ041-046>049-061>064-073>077-083>087-230100-
SOUTH CENTRAL NEBRASKA

CITY           SKY/WX    TMP DP  RH WIND       PRES   REMARKS
GRAND ISLAND   PTCLDY    37  30  75 NW12      29.51R WCI  29
6HR MIN TEMP:  37; 6HR MAX TEMP:  46;

HASTINGS       CLOUDY    42  30  62 NW15      29.51R
6HR MIN TEMP:  42; 6HR MAX TEMP:  49;

KEARNEY *      CLOUDY    39  30  70 NW12      29.53R WCI  32
$$

NEZ011>018-030>034-042>045-230100-
NORTHEAST NEBRASKA

CITY           SKY/WX    TMP DP  RH WIND       PRES   REMARKS
NORFOLK        LGT RAIN  37  35  92 NW14      29.45S WCI  28
6HR MIN TEMP:  37; 6HR MAX TEMP:  43; 6HR PCP:  0.02;

COLUMBUS *     CLOUDY    37  32  81 NW14      29.48S WCI  29
TEKAMAH        LGT RAIN  42  39  89 NW10      29.43R
6HR MIN TEMP:  42; 6HR MAX TEMP:  43; 6HR PCP:  0.12;

$$

NEZ050>053-065>068-078-088>093-230100-
SOUTHEAST NEBRASKA

CITY           SKY/WX    TMP DP  RH WIND       PRES   REMARKS
LINCOLN        CLOUDY    42  36  79 NW16      29.48R
6HR MIN TEMP:  42; 6HR MAX TEMP:  45; 6HR PCP:  0.01;

OMAHA EPPLEY   LGT RAIN  42  40  92 NW9       29.44S FOG
6HR MIN TEMP:  42; 6HR MAX TEMP:  43; 6HR PCP:  0.25;

FALLS CITY     LGT RAIN  43  50 100 W14       29.46R
6HR MIN TEMP:  43; 6HR MAX TEMP:  46; 6HR PCP:  0.15;

$$

NEZ044-045-051>053-067-230100-
OMAHA AREA

CITY           SKY/WX    TMP DP  RH WIND       PRES   REMARKS
OMAHA EPPLEY   LGT RAIN  42  40  92 NW9       29.44S FOG
6HR MIN TEMP:  42; 6HR MAX TEMP:  43; 6HR PCP:  0.25;

OFFUTT AFB     RAIN      42  40  95 W12       29.43R
$$



USA.gov is the U.S. government's official web portal to all federal, state and local government web resources and services.